[ hide orbit diagram ]
For accurate long-term ephemerides, please instead use our Horizons system.This orbit viewer was implemented using two-body methods, and hence should not be used for determining accurate long-term trajectories (over several years or decades) or planetary encounter circumstances.
Orbital Elements at Epoch 2459000.5 (2020-May-31.0) TDB
Reference: JPL 18 (heliocentric ecliptic J2000)
Element | Value | Uncertainty (1-sigma) | Units |
e | .08773987250417338 | 4.5176e-08 | |
a | 2.658764972611937 | 1.654e-08 | au |
q | 2.425485272896403 | 1.2055e-07 | au |
i | 2.329575372459245 | 4.2814e-06 | deg |
node | 263.9975627738025 | 0.00012241 | deg |
peri | 87.53110709234495 | 0.00012526 | deg |
M | 97.23901888014167 | 2.5842e-05 | deg |
tp | 2458572.783093314646 (2019-Mar-30.28309331) | 0.00011302 | TDB |
period | 1583.501028496835 4.34 | 1.4777e-05 4.046e-08 | d yr |
n | .2273443423915778 | 2.1215e-09 | deg/d |
Q | 2.89204467232747 | 1.7992e-08 | au |
|
| | Orbit Determination Parameters
Additional Information
|
[ show covariance matrix ]
Physical Parameter Table
Parameter |
Symbol |
Value |
Units |
Sigma |
Reference |
Notes |
absolute magnitude |
H |
16.0 |
|
n/a |
MPO453928 |
|
diameter |
diameter |
2.286 |
km |
0.276 |
urn:nasa:pds:neowise_diameters_albedos::2.0[mainbelt] (http://adsabs.harvard.edu/abs/2011ApJ...741...68M) |
|
geometric albedo |
albedo |
0.135 |
|
0.091 |
urn:nasa:pds:neowise_diameters_albedos::2.0[mainbelt] (http://adsabs.harvard.edu/abs/2011ApJ...741...68M) |
|
|
146362 (2001 PR13) Discovered 2001-Aug-13 by Farra d'Isonzo at Farra d'Isonzo |
Reference: 20070106/Numbers.arc | Last Updated: 2007-01-09 |
|
[ show close-approach data ]
|